When you browse on this site, cookies collect data to enhance your experience and personalize the content and advertising you see.
Visit our Privacy Policy to learn more. By continuing to use the site, you agree to this use of cookies and data.
  • în România
  • Lista ţărilor
  • Pe 7 zile
  • Temperatura apei
  • Meteo pe hartă
  • Widget-uri
  • user-avatar
    Intrare

    Meteo pe oră la Qui Nhon

    Astăzi, 26 August, Luni

    Timp Temperatura Precipitaţii Vânt Presiune Umiditate
    00:00 +28°C° 0 mm 2 m/s 753 mmHg 78%
    01:00 +28°C° 0 mm 2 m/s 752 mmHg 78%
    02:00 +29°C° 0 mm 2 m/s 752 mmHg 77%
    03:00 +29°C° 0 mm 2 m/s 752 mmHg 76%
    04:00 +29°C° 0 mm 2 m/s 752 mmHg 75%
    05:00 +29°C° 0 mm 2 m/s 753 mmHg 75%
    06:00 +29°C° 0 mm 3 m/s 753 mmHg 75%
    07:00 +30°C° 0 mm 1 m/s 753 mmHg 77%
    08:00 +32°C° 0 mm 2 m/s 753 mmHg 69%
    09:00 +34°C° 0 mm 3 m/s 753 mmHg 62%
    10:00 +36°C° 0 mm 3 m/s 753 mmHg 54%
    11:00 +36°C° 0 mm 3 m/s 752 mmHg 53%
    12:00 +37°C° 0 mm 3 m/s 752 mmHg 51%
    13:00 +38°C° 0 mm 3 m/s 751 mmHg 49%
    14:00 +37°C° 0 mm 4 m/s 751 mmHg 50%
    15:00 +37°C° 0 mm 4 m/s 751 mmHg 50%
    16:00 +37°C° 0 mm 5 m/s 751 mmHg 50%
    17:00 +35°C° 0.1 mm 4 m/s 751 mmHg 58%
    18:00 +33°C° 0.1 mm 4 m/s 752 mmHg 66%
    19:00 +30°C° 0.1 mm 3 m/s 752 mmHg 73%
    20:00 +30°C° 0 mm 3 m/s 753 mmHg 77%
    21:00 +29°C° 0 mm 3 m/s 753 mmHg 80%
    22:00 +28°C° 0 mm 4 m/s 753 mmHg 83%
    23:00 +28°C° 0 mm 4 m/s 753 mmHg 84%

    Mâine, 27 August, Marţi

    Timp Temperatura Precipitaţii Vânt Presiune Umiditate
    00:00 +28°C° 0 mm 4 m/s 753 mmHg 84%
    01:00 +28°C° 0 mm 4 m/s 753 mmHg 84%
    02:00 +28°C° 0 mm 4 m/s 753 mmHg 84%
    03:00 +27°C° 0 mm 4 m/s 752 mmHg 84%
    04:00 +27°C° 0 mm 5 m/s 752 mmHg 83%
    05:00 +28°C° 0 mm 4 m/s 753 mmHg 79%
    06:00 +29°C° 0 mm 4 m/s 753 mmHg 75%
    07:00 +29°C° 0 mm 4 m/s 753 mmHg 71%
    08:00 +33°C° 0 mm 4 m/s 753 mmHg 64%
    09:00 +35°C° 0 mm 4 m/s 753 mmHg 57%
    10:00 +37°C° 0 mm 4 m/s 753 mmHg 49%
    11:00 +37°C° 0 mm 4 m/s 753 mmHg 48%
    12:00 +38°C° 0 mm 4 m/s 752 mmHg 46%
    13:00 +40°C° 0 mm 4 m/s 752 mmHg 45%
    14:00 +38°C° 0 mm 3 m/s 751 mmHg 48%
    15:00 +38°C° 0 mm 3 m/s 751 mmHg 50%
    16:00 +37°C° 0 mm 3 m/s 750 mmHg 53%
    17:00 +35°C° 0.7 mm 2 m/s 751 mmHg 64%
    18:00 +31°C° 0.7 mm 2 m/s 751 mmHg 74%
    19:00 +29°C° 0.7 mm 1 m/s 752 mmHg 84%
    20:00 +29°C° 0.1 mm 1 m/s 753 mmHg 86%
    21:00 +29°C° 0.1 mm 1 m/s 753 mmHg 87%
    22:00 +29°C° 0.1 mm 1 m/s 754 mmHg 88%
    23:00 +28°C° 0 mm 1 m/s 754 mmHg 88%

    Poimâine, 28 August, Miercuri

    Timp Temperatura Precipitaţii Vânt Presiune Umiditate
    00:00 +28°C° 0 mm 2 m/s 753 mmHg 88%
    01:00 +28°C° 0 mm 2 m/s 753 mmHg 89%
    02:00 +27°C° 0 mm 2 m/s 753 mmHg 89%
    03:00 +27°C° 0 mm 2 m/s 753 mmHg 89%
    04:00 +27°C° 0 mm 2 m/s 752 mmHg 90%
    05:00 +28°C° 0 mm 2 m/s 753 mmHg 87%
    06:00 +28°C° 0 mm 2 m/s 753 mmHg 85%
    07:00 +29°C° 0 mm 2 m/s 753 mmHg 83%
    08:00 +31°C° 0 mm 3 m/s 753 mmHg 73%
    09:00 +34°C° 0 mm 3 m/s 753 mmHg 63%
    10:00 +36°C° 0 mm 3 m/s 753 mmHg 53%
    11:00 +36°C° 0.4 mm 4 m/s 753 mmHg 55%
    12:00 +36°C° 0.4 mm 4 m/s 752 mmHg 58%
    13:00 +36°C° 0.4 mm 4 m/s 752 mmHg 61%
    14:00 +35°C° 1.2 mm 4 m/s 751 mmHg 67%
    15:00 +34°C° 1.2 mm 4 m/s 751 mmHg 73%
    16:00 +33°C° 1.2 mm 4 m/s 751 mmHg 78%
    17:00 +31°C° 0.6 mm 3 m/s 751 mmHg 82%
    18:00 +30°C° 0.6 mm 2 m/s 751 mmHg 86%
    19:00 +29°C° 0.6 mm 2 m/s 751 mmHg 90%
    20:00 +29°C° 1 mm 2 m/s 752 mmHg 90%
    21:00 +29°C° 1 mm 2 m/s 752 mmHg 90%
    22:00 +28°C° 1 mm 2 m/s 753 mmHg 90%
    23:00 +28°C° 1.8 mm 2 m/s 752 mmHg 90%

    29 August, Joi

    Timp Temperatura Precipitaţii Vânt Presiune Umiditate
    00:00 +28°C° 1.8 mm 2 m/s 751 mmHg 90%
    01:00 +28°C° 1.8 mm 2 m/s 750 mmHg 91%
    02:00 +27°C° 1.8 mm 3 m/s 750 mmHg 91%
    03:00 +27°C° 1.8 mm 4 m/s 749 mmHg 92%
    04:00 +27°C° 1.8 mm 5 m/s 749 mmHg 93%
    05:00 +27°C° 5.3 mm 6 m/s 749 mmHg 93%
    06:00 +27°C° 5.3 mm 6 m/s 749 mmHg 93%
    07:00 +27°C° 5.3 mm 7 m/s 749 mmHg 94%
    08:00 +27°C° 1 mm 8 m/s 748 mmHg 90%
    09:00 +28°C° 1 mm 10 m/s 748 mmHg 86%
    10:00 +29°C° 1 mm 12 m/s 748 mmHg 82%
    11:00 +29°C° 0.9 mm 12 m/s 747 mmHg 80%
    12:00 +29°C° 0.9 mm 12 m/s 746 mmHg 78%
    13:00 +29°C° 0.9 mm 12 m/s 746 mmHg 76%
    14:00 +29°C° 2.6 mm 12 m/s 745 mmHg 80%
    15:00 +28°C° 2.6 mm 12 m/s 745 mmHg 85%
    16:00 +27°C° 2.6 mm 12 m/s 744 mmHg 89%
    17:00 +27°C° 9.1 mm 10 m/s 744 mmHg 90%
    18:00 +27°C° 9.1 mm 9 m/s 745 mmHg 92%
    19:00 +27°C° 9.1 mm 8 m/s 745 mmHg 94%
    20:00 +27°C° 6.8 mm 8 m/s 745 mmHg 94%
    21:00 +27°C° 6.8 mm 8 m/s 746 mmHg 94%
    22:00 +27°C° 6.8 mm 8 m/s 746 mmHg 94%
    23:00 +27°C° 5.2 mm 9 m/s 746 mmHg 94%

    30 August, Vineri

    Timp Temperatura Precipitaţii Vânt Presiune Umiditate
    00:00 +27°C° 5.2 mm 9 m/s 745 mmHg 94%
    01:00 +26°C° 5.2 mm 10 m/s 745 mmHg 94%
    02:00 +26°C° 4.6 mm 9 m/s 745 mmHg 94%
    03:00 +26°C° 4.6 mm 7 m/s 745 mmHg 94%
    04:00 +26°C° 4.6 mm 6 m/s 744 mmHg 94%
    05:00 +27°C° 2.6 mm 6 m/s 745 mmHg 94%
    06:00 +27°C° 2.6 mm 6 m/s 746 mmHg 94%
    07:00 +27°C° 2.6 mm 6 m/s 747 mmHg 93%
    08:00 +27°C° 1.2 mm 6 m/s 747 mmHg 92%
    09:00 +27°C° 1.2 mm 7 m/s 748 mmHg 91%
    10:00 +28°C° 1.2 mm 7 m/s 748 mmHg 91%
    11:00 +28°C° 0 mm 7 m/s 748 mmHg 85%
    12:00 +29°C° 0 mm 7 m/s 748 mmHg 80%
    13:00 +30°C° 0 mm 7 m/s 747 mmHg 75%
    14:00 +30°C° 0 mm 7 m/s 747 mmHg 74%
    15:00 +30°C° 0 mm 7 m/s 747 mmHg 74%
    16:00 +30°C° 0 mm 6 m/s 747 mmHg 73%
    17:00 +29°C° 0 mm 6 m/s 747 mmHg 74%
    18:00 +29°C° 0 mm 6 m/s 748 mmHg 74%
    19:00 +28°C° 0 mm 5 m/s 748 mmHg 75%
    20:00 +28°C° 0 mm 6 m/s 749 mmHg 75%
    21:00 +28°C° 0 mm 6 m/s 750 mmHg 75%
    22:00 +28°C° 0 mm 6 m/s 750 mmHg 75%
    23:00 +28°C° 0 mm 6 m/s 750 mmHg 75%

    31 August, Sâmbătă

    Timp Temperatura Precipitaţii Vânt Presiune Umiditate
    00:00 +28°C° 0 mm 6 m/s 750 mmHg 75%
    01:00 +28°C° 0 mm 5 m/s 749 mmHg 76%
    02:00 +28°C° 0 mm 6 m/s 749 mmHg 76%
    03:00 +28°C° 0 mm 6 m/s 749 mmHg 76%
    04:00 +28°C° 0 mm 7 m/s 749 mmHg 76%
    05:00 +28°C° 0 mm 6 m/s 749 mmHg 76%
    06:00 +28°C° 0 mm 6 m/s 749 mmHg 76%
    07:00 +29°C° 0 mm 6 m/s 750 mmHg 77%
    08:00 +30°C° 0 mm 6 m/s 750 mmHg 73%
    09:00 +32°C° 0 mm 6 m/s 750 mmHg 70%
    10:00 +33°C° 0 mm 6 m/s 750 mmHg 67%
    11:00 +33°C° 0.1 mm 6 m/s 750 mmHg 66%
    12:00 +34°C° 0.1 mm 6 m/s 749 mmHg 65%
    13:00 +34°C° 0.1 mm 6 m/s 749 mmHg 65%
    14:00 +34°C° 0.3 mm 5 m/s 749 mmHg 66%
    15:00 +34°C° 0.3 mm 5 m/s 749 mmHg 68%
    16:00 +33°C° 0.3 mm 4 m/s 749 mmHg 69%
    17:00 +32°C° 0.1 mm 4 m/s 749 mmHg 73%
    18:00 +30°C° 0.1 mm 3 m/s 750 mmHg 77%
    19:00 +29°C° 0.1 mm 2 m/s 751 mmHg 81%
    20:00 +29°C° 0 mm 2 m/s 751 mmHg 81%
    21:00 +29°C° 0 mm 2 m/s 752 mmHg 81%
    22:00 +28°C° 0 mm 2 m/s 753 mmHg 81%
    23:00 +28°C° 0 mm 3 m/s 752 mmHg 80%
    Arată mai mult